02/09/2026 / 06/09/2026
| Fecha / Hora | Descripción | Porcentaje Nubes | Temperatura | Humedad | Viento | |
| miércoles 02/09/2026 00:00 hs | cielo claro | 4 % | 22.7 ° | 92 % | 8.9 Km/h | |
| miércoles 02/09/2026 03:00 hs | cielo claro | 8 % | 22.2 ° | 93 % | 7.3 Km/h | |
| miércoles 02/09/2026 06:00 hs | muy nuboso | 57 % | 22.2 ° | 91 % | 8.9 Km/h | |
| miércoles 02/09/2026 09:00 hs | nubes | 96 % | 24.8 ° | 76 % | 10.1 Km/h | |
| miércoles 02/09/2026 12:00 hs | algo de nubes | 24 % | 29.8 ° | 58 % | 11.7 Km/h | |
| miércoles 02/09/2026 15:00 hs | algo de nubes | 13 % | 27.1 ° | 73 % | 18.4 Km/h | |
| miércoles 02/09/2026 18:00 hs | cielo claro | 4 % | 25.2 ° | 82 % | 18.6 Km/h | |
| miércoles 02/09/2026 21:00 hs | cielo claro | 5 % | 25.3 ° | 84 % | 19.4 Km/h | |
| jueves 03/09/2026 00:00 hs | lluvia ligera | 14 % | 23.9 ° | 94 % | 9.6 Km/h | |
| jueves 03/09/2026 03:00 hs | lluvia ligera | 23 % | 23.8 ° | 94 % | 9.6 Km/h | |
| jueves 03/09/2026 06:00 hs | lluvia ligera | 14 % | 23.7 ° | 92 % | 10.3 Km/h | |
| jueves 03/09/2026 09:00 hs | lluvia ligera | 37 % | 24.9 ° | 90 % | 10.8 Km/h | |
| jueves 03/09/2026 12:00 hs | lluvia ligera | 4 % | 26.6 ° | 76 % | 11.7 Km/h | |
| jueves 03/09/2026 15:00 hs | lluvia ligera | 8 % | 27.3 ° | 68 % | 13.4 Km/h | |
| jueves 03/09/2026 18:00 hs | lluvia ligera | 7 % | 23.9 ° | 87 % | 8 Km/h | |
| jueves 03/09/2026 21:00 hs | lluvia ligera | 5 % | 23.2 ° | 90 % | 4.7 Km/h | |
| viernes 04/09/2026 00:00 hs | lluvia ligera | 32 % | 22.8 ° | 91 % | 2.2 Km/h | |
| viernes 04/09/2026 03:00 hs | lluvia ligera | 34 % | 22.1 ° | 92 % | 2.5 Km/h | |
| viernes 04/09/2026 06:00 hs | lluvia ligera | 22 % | 21.6 ° | 94 % | 5.2 Km/h | |
| viernes 04/09/2026 09:00 hs | lluvia ligera | 19 % | 26.6 ° | 71 % | 3.4 Km/h | |
| viernes 04/09/2026 12:00 hs | lluvia ligera | 62 % | 27.3 ° | 69 % | 11.2 Km/h | |
| viernes 04/09/2026 15:00 hs | nubes dispersas | 40 % | 27.5 ° | 61 % | 13.4 Km/h | |
| viernes 04/09/2026 18:00 hs | cielo claro | 0 % | 24.3 ° | 88 % | 13.8 Km/h | |
| viernes 04/09/2026 21:00 hs | cielo claro | 8 % | 24.1 ° | 86 % | 14.8 Km/h | |
| sábado 05/09/2026 00:00 hs | algo de nubes | 13 % | 23 ° | 88 % | 10.2 Km/h | |
| sábado 05/09/2026 03:00 hs | nubes dispersas | 26 % | 21.7 ° | 92 % | 7.2 Km/h | |
| sábado 05/09/2026 06:00 hs | nubes dispersas | 34 % | 20.6 ° | 95 % | 7.5 Km/h | |
| sábado 05/09/2026 09:00 hs | nubes dispersas | 25 % | 25.7 ° | 70 % | 8.6 Km/h | |
| sábado 05/09/2026 12:00 hs | cielo claro | 0 % | 27.5 ° | 60 % | 11.7 Km/h | |
| sábado 05/09/2026 15:00 hs | cielo claro | 0 % | 26.8 ° | 66 % | 15.6 Km/h | |
| sábado 05/09/2026 18:00 hs | cielo claro | 0 % | 24.3 ° | 83 % | 17.1 Km/h | |
| sábado 05/09/2026 21:00 hs | cielo claro | 0 % | 23.9 ° | 86 % | 14.5 Km/h | |
| domingo 06/09/2026 00:00 hs | algo de nubes | 13 % | 22.8 ° | 87 % | 11 Km/h | |
| domingo 06/09/2026 03:00 hs | nubes dispersas | 36 % | 21.7 ° | 92 % | 7.1 Km/h | |
| domingo 06/09/2026 06:00 hs | muy nuboso | 76 % | 21.2 ° | 94 % | 9.4 Km/h | |
| domingo 06/09/2026 09:00 hs | muy nuboso | 78 % | 25 ° | 75 % | 11.9 Km/h | |
| domingo 06/09/2026 12:00 hs | algo de nubes | 13 % | 28.6 ° | 58 % | 10.9 Km/h | |
| domingo 06/09/2026 15:00 hs | cielo claro | 6 % | 26.7 ° | 69 % | 16.8 Km/h | |
| domingo 06/09/2026 18:00 hs | cielo claro | 0 % | 24.6 ° | 84 % | 17.3 Km/h | |
| domingo 06/09/2026 21:00 hs | cielo claro | 0 % | 24.5 ° | 85 % | 16.6 Km/h |
Fuente: Open Weather Map
© 2009 / 2026 - BrasilPlayas.com
Diseño y desarrollo: ArraialWebDesign
Los artículos publicados en esta web son propiedad intelectual de sus respectivos autores, que se reservan todos los derechos sobre los mismos
Las imágenes contenidas en este sitio están sujetas a la respectiva licencia y acreditación que las acompaña
Este website usa Cookies. Saber más sobre nuestra política de Cookies